This demonstration page uses our WeatherBlox Daily Observations layout. Learn more.

Hourly Observations for March 31, 2018

Temp ( °F °C ) Dew Point ( °F °C ) Humidity (%) Winds ( mph kmh ) Pressure ( in mb ) Visibility ( mi km ) Precip ( " mm )
12:15 am 00:15 Clear 53 11.5 41 5 65 65 SSW 20 31 29.8 1009 10 16.0934 0 0
12:35 am 00:35 Partly Cloudy 52 11.1 41 4.8 65 65 SSW 15 24 29.8 1009 10 16.0934 0 0
12:55 am 00:55 Mostly Cloudy 51 10.6 40 4.7 67 67 SSW 14 22 29.83 1010 10 16.0934 0 0
1:15 am 01:15 Partly Cloudy 51 10.5 40 4.7 68 68 SSW 15 24 29.83 1010 10 16.0934 0 0
1:35 am 01:35 Clear 50 10.1 40 4.6 69 69 SSW 14 22 29.83 1010 10 16.0934 0 0
1:55 am 01:55 Clear 50 10 40 4.7 70 70 SW 14 22 29.83 1010 10 16.0934 0 0
2:15 am 02:15 Clear 49 9.6 40 4.5 71 71 SW 14 22 29.83 1010 10 16.0934 0 0
2:35 am 02:35 Clear 49 9.3 40 4.5 72 72 SW 15 24 29.83 1010 10 16.0934 0 0
2:55 am 02:55 Clear 49 9.3 40 4.5 72 72 SW 15 24 29.83 1010 10 16.0934 0 0
3:15 am 03:15 Clear 49 9.5 40 4.5 71 71 WSW 15 24 29.83 1010 10 16.0934 0 0
3:35 am 03:35 Clear 50 10.2 40 4.5 68 68 W 15 24 29.85 1011 10 16.0934 0 0
3:55 am 03:55 Clear 51 10.4 38 3.4 62 62 N 20 31 29.88 1012 10 16.0934 0 0
4:15 am 04:15 Clear 48 8.9 37 2.6 65 65 N 15 24 29.91 1013 10 16.0934 0 0
4:35 am 04:35 Clear 46 7.6 36 2.2 69 69 N 10 17 29.94 1014 10 16.0934 0 0
4:55 am 04:55 Clear 44 6.4 35 1.7 72 72 N 8 13 29.94 1014 10 16.0934 0 0
5:15 am 05:15 Clear 43 6 35 1.8 75 75 N 10 17 29.97 1015 10 16.0934 0 0
5:35 am 05:35 Clear 44 6.5 36 2 73 73 N 14 22 29.97 1015 10 16.0934 0 0
5:55 am 05:55 Clear 43 6.3 36 2 74 74 N 13 20 30 1016 10 16.0934 0 0
6:15 am 06:15 Clear 43 5.9 35 1.8 75 75 N 13 20 30 1016 10 16.0934 0 0
6:35 am 06:35 Clear 42 5.4 35 1.9 78 78 NNW 15 24 30.06 1018 10 16.0934 0 0
6:55 am 06:55 Mostly Cloudy 42 5.6 36 2.1 78 78 N 15 24 30.06 1018 10 16.0934 0 0
7:15 am 07:15 Partly Cloudy 41 5 35 1.6 79 79 N 13 20 30.09 1019 10 16.0934 0 0
7:35 am 07:35 Sunny 41 5.1 35 1.4 77 77 N 21 33 30.09 1019 10 16.0934 0 0
7:55 am 07:55 Sunny 38 3.1 31 -0.7 76 76 N 23 37 30.15 1021 10 16.0934 0 0
8:15 am 08:15 Sunny 37 2.5 31 -0.8 79 79 N 22 35 30.18 1022 10 16.0934 0 0
8:35 am 08:35 Partly Cloudy 36 2.4 30 -1.3 77 77 N 25 41 30.18 1022 10 16.0934 0 0
8:55 am 08:55 Cloudy 35 1.9 29 -1.9 76 76 N 23 37 30.21 1023 10 16.0934 0 0
9:15 am 09:15 Cloudy 35 1.4 28 -2 78 78 N 29 46 30.21 1023 10 16.0934 0 0
9:35 am 09:35 Cloudy 33 0.6 28 -2.4 81 81 N 25 41 30.24 1024 10 16.0934 0 0
9:55 am 09:55 Cloudy 32 0.1 27 -3 80 80 N 31 50 30.24 1024 10 16.0934 0 0
10:15 am 10:15 Cloudy 31 -0.3 25 -3.9 77 77 N 26 43 30.24 1024 10 16.0934 0 0
10:35 am 10:35 Cloudy 31 -0.5 25 -4.1 77 77 N 24 39 30.27 1025 10 16.0934 0 0
10:55 am 10:55 Cloudy 31 -0.8 24 -4.5 76 76 N 29 46 30.3 1026 10 16.0934 0 0
11:15 am 11:15 Cloudy 29 -1.5 22 -5.4 75 75 NNE 25 41 30.36 1028 10 16.0934 0 0
11:35 am 11:35 Cloudy 29 -1.7 22 -5.8 74 74 N 25 41 30.36 1028 10 16.0934 0 0
11:55 am 11:55 Cloudy 29 -1.4 22 -5.3 75 75 N 18 30 30.39 1029 10 16.0934 0 0
12:15 pm 12:15 Cloudy 28 -2 21 -5.9 75 75 N 21 33 30.39 1029 10 16.0934 0 0
12:35 pm 12:35 Cloudy 28 -2.2 21 -6.2 74 74 N 20 31 30.39 1029 10 16.0934 0 0
12:55 pm 12:55 Cloudy 29 -1.6 20 -6.5 70 70 N 20 31 30.42 1030 10 16.0934 0 0
1:15 pm 13:15 Cloudy 31 -0.7 20 -6.4 66 66 N 17 28 30.39 1029 10 16.0934 0 0
1:35 pm 13:35 Cloudy 31 -0.3 20 -6.5 63 63 N 20 31 30.36 1028 10 16.0934 0 0
1:55 pm 13:55 Mostly Cloudy 32 0 20 -6.5 62 62 N 21 33 30.36 1028 10 16.0934 0 0
2:15 pm 14:15 Partly Cloudy 34 0.9 20 -6.9 56 56 N 20 31 30.36 1028 10 16.0934 0 0
2:35 pm 14:35 Mostly Cloudy 33 0.8 19 -7.4 55 55 NNE 20 31 30.36 1028 10 16.0934 0 0
2:55 pm 14:55 Mostly Cloudy 35 1.7 19 -7 53 53 N 15 24 30.36 1028 10 16.0934 0 0
3:15 pm 15:15 Partly Cloudy 36 2.1 19 -7.3 50 50 N 16 26 30.3 1026 10 16.0934 0 0
3:35 pm 15:35 Sunny 36 2.2 19 -7.4 49 49 N 15 24 30.3 1026 10 16.0934 0 0
3:55 pm 15:55 Sunny 37 2.5 18 -7.6 48 48 N 18 30 30.3 1026 10 16.0934 0 0
4:15 pm 16:15 Sunny 37 2.7 18 -7.8 46 46 N 17 28 30.3 1026 10 16.0934 0 0
4:35 pm 16:35 Mostly Cloudy 37 3 18 -7.6 46 46 N 22 35 30.3 1026 10 16.0934 0 0
4:55 pm 16:55 Partly Cloudy 35 1.9 17 -8.1 48 48 N 18 30 30.3 1026 10 16.0934 0 0
5:15 pm 17:15 Sunny 36 2.2 18 -8 47 47 N 16 26 30.3 1026 10 16.0934 0 0
5:35 pm 17:35 Sunny 35 1.8 17 -8.5 47 47 NNE 21 33 30.3 1026 10 16.0934 0 0
5:55 pm 17:55 Mostly Cloudy 35 1.5 17 -8.4 48 48 N 18 30 30.33 1027 10 16.0934 0 0
6:15 pm 18:15 Cloudy 35 1.5 17 -8.3 49 49 NNE 20 31 30.33 1027 10 16.0934 0 0
6:35 pm 18:35 Cloudy 34 1 16 -8.7 49 49 NNE 21 33 30.33 1027 10 16.0934 0 0
7:15 pm 19:15 Cloudy 33 0.6 16 -8.9 49 49 NNE 18 30 30.33 1027 10 16.0934 0 0
7:35 pm 19:35 Cloudy 33 0.3 17 -8.5 52 52 NNE 20 31 30.33 1027 10 16.0934 0 0
7:55 pm 19:55 Cloudy 32 0 16 -8.8 52 52 NNE 14 22 30.36 1028 10 16.0934 0 0
8:15 pm 20:15 Cloudy 32 0 16 -8.8 52 52 NNE 12 19 30.39 1029 10 16.0934 0 0
8:35 pm 20:35 Mostly Cloudy 31 -0.3 15 -9.2 51 51 NNE 14 22 30.39 1029 10 16.0934 0 0
8:55 pm 20:55 Partly Cloudy 31 -0.8 15 -9.5 52 52 NNE 15 24 30.39 1029 10 16.0934 0 0
9:15 pm 21:15 Partly Cloudy 30 -0.9 15 -9.7 52 52 NE 13 20 30.39 1029 10 16.0934 0 0
9:35 pm 21:35 Mostly Cloudy 30 -1 14 -9.8 52 52 NE 10 17 30.42 1030 10 16.0934 0 0
9:55 pm 21:55 Cloudy 30 -1.1 14 -10 51 51 NE 12 19 30.42 1030 10 16.0934 0 0
10:15 pm 22:15 Cloudy 30 -1.2 14 -10.2 51 51 NNE 10 17 30.42 1030 10 16.0934 0 0
10:35 pm 22:35 Cloudy 30 -1.3 13 -10.5 50 50 NNE 9 15 30.45 1031 10 16.0934 0 0
10:55 pm 22:55 Mostly Cloudy 28 -2.1 11 -11.4 49 49 NNE 9 15 30.45 1031 10 16.0934 0 0
11:15 pm 23:15 Partly Cloudy 27 -2.9 12 -11.1 54 54 N 7 11 30.45 1031 10 16.0934 0 0
11:35 pm 23:35 Partly Cloudy 26 -3.6 13 -10.4 60 60 NNE 7 11 30.45 1031 10 16.0934 0 0
11:55 pm 23:55 Mostly Cloudy 28 -2.5 13 -10.7 54 54 NNE 7 11 30.48 1032 10 16.0934 0 0

Powered by AerisWeather